Location: Holyhead Bay
(53.3667°N, 4.6667°W)
Time: 19:53:12
(UTC+00:00)

COSMOS 2428 - Pass Details

Date: 24 November 2020
Orbit: 848 x 855 km, 70.9° (Epoch: 17 January)

Event Time Altitude Azimuth Distance (km) Brightness Sun altitude
Rises 18:52:03 0° 245° (WSW) 3,423 7.0 -23.4°
Reaches altitude 10° 18:54:45 10° 255° (WSW) 2,489 6.2 -23.8°
Maximum altitude 18:59:54 34° 319° (NW) 1,395 4.1 -24.5°
Enters shadow 19:03:29 18° 13° (NNE) 2,005 4.5 -25.1°
